Home > Weather > Salina > Past weeks

Flag for USA Past Weather in Salina, Kansas, USA — Yesterday and Last 2 Weeks

Now
68 °F

Mostly cloudy.


Feels Like: 68 °F
Forecast: 66 / 81 °F
Wind: 18 mph from Northeast

Location: Salina Municipal Airport

Current Time: May 24, 2016 at 5:12:40 AM

Latest Report: May 24, 2016 at 3:58 AM


Visibility: 8 mi

Pressure: 29.87 "Hg

Humidity: 93%

Dew Point: 66 °F

Location of SalinaLocation

Past Weather in Salina — Graph

°F

Salina Temperature Yesterday

Maximum temperature yesterday: 79 °F (at 4:53 PM)
Minimum temperature yesterday: 67 °F (at 11:01 AM)
Average temperature yesterday: 71 °F

High & Low Weather Summary for the Past Weeks

 TemperatureHumidityPressure
High87 °F (May 10, 3:53 PM)97% (May 16, 9:53 AM)30.40 "Hg (May 16, 9:53 AM)
Low42 °F (May 14, 5:53 AM)27% (May 12, 2:53 PM)29.44 "Hg (May 9, 3:53 PM)
Average63 °F68%30.01 "Hg
* Reported May 9 2:02 AM — May 24 2:53 AM, Salina, Weather by CustomWeather, © 2016

Note: Actual official high and low records may vary slightly from our data, if they occured in-between our weather recording intervals... More about our weather records

Advertising

Salina Weather History for the Previous 24 Hours

Scroll right to see more
 ConditionsComfort  
Time TempWeatherWind HumidityBarometerVisibility
2:53 AM
Tue, May 24
70 °FOvercast.7 mph90%29.80 "Hg7 mi
1:53 AM70 °FOvercast.5 mph87%29.80 "Hg10 mi
12:53 AM69 °FOvercast.12 mph87%29.77 "Hg10 mi
11:53 PM
Mon, May 23
70 °FOvercast.13 mph79%29.80 "Hg10 mi
10:53 PM70 °FOvercast.16 mph76%29.80 "Hg10 mi
9:53 PM71 °FOvercast.15 mph71%29.77 "Hg10 mi
8:53 PM72 °FOvercast.15 mph68%29.75 "Hg10 mi
7:53 PM73 °FOvercast.15 mph66%29.75 "Hg10 mi
6:53 PM74 °FOvercast.16 mph67%29.74 "Hg10 mi
5:53 PM76 °FMostly cloudy.17 mph62%29.74 "Hg10 mi
4:53 PM79 °FSunny.20 mph58%29.74 "Hg10 mi
3:53 PM77 °FSunny.17 mph64%29.74 "Hg10 mi
2:53 PM72 °FScattered clouds.16 mph73%29.75 "Hg10 mi
1:53 PM70 °FSunny.17 mph76%29.78 "Hg10 mi
12:53 PM68 °FScattered clouds.12 mph82%29.79 "Hg10 mi
11:53 AM68 °FPartly sunny.10 mph93%29.80 "Hg7 mi
11:01 AM67 °FMore clouds than sun.8 mph93%29.82 "Hg7 mi
10:00 AM68 °FThunderstorms. Fog.5 mph93%29.82 "Hg1 mi
9:02 AM71 °FThundershowers. Partly sunny.6 mph81%29.83 "Hg10 mi
8:04 AM70 °FScattered clouds.10 mph87%29.84 "Hg9 mi
6:53 AM69 °FLight rain. Mostly cloudy.6 mph87%29.80 "Hg10 mi
5:53 AM69 °FClear.12 mph87%29.74 "Hg10 mi
Weather by CustomWeather, © 2016

See weather overviewHow to use our weather pages